| time (UTC) | temp F | wind direction | speed MPH | gust MPH | rain 1hr in | rain 24hr in | rain mn in | humidity % | barometer mb |
| 20260505001516 | 76 | 159 | 4.0 | 9.0 | 0.00 | 0.00 | 0.00 | 69 | 1009.3 |
| 20260505001011 | 76 | 89 | 4.0 | 10.0 | 0.00 | 0.00 | 0.00 | 68 | 1009.4 |
| 20260505000502 | 76 | 102 | 4.0 | 11.0 | 0.00 | 0.00 | 0.00 | 68 | 1009.5 |
| 20260505000025 | 76 | 180 | 3.0 | 11.0 | 0.00 | 0.00 | 0.00 | 68 | 1009.5 |
| 20260504235501 | 77 | 167 | 3.0 | 7.0 | 0.00 | 0.00 | 0.00 | 68 | 1009.4 |
| 20260504235006 | 77 | 178 | 4.0 | 9.0 | 0.00 | 0.00 | 0.00 | 68 | 1009.4 |
| 20260504234005 | 77 | 139 | 4.0 | 13.0 | 0.00 | 0.00 | 0.00 | 67 | 1009.7 |
| 20260504233502 | 77 | 136 | 4.0 | 13.0 | 0.00 | 0.00 | 0.00 | 67 | 1009.8 |
| 20260504233025 | 77 | 212 | 4.0 | 12.0 | 0.00 | 0.00 | 0.00 | 67 | 1009.7 |
| 20260504232502 | 78 | 202 | 4.0 | 12.0 | 0.00 | 0.00 | 0.00 | 66 | 1009.8 |
| 20260504231517 | 78 | 288 | 5.0 | 14.0 | 0.00 | 0.00 | 0.00 | 66 | 1009.9 |
| 20260504231002 | 78 | 125 | 5.0 | 13.0 | 0.00 | 0.00 | 0.00 | 66 | 1009.8 |
| 20260504230501 | 78 | 191 | 5.0 | 13.0 | 0.00 | 0.00 | 0.00 | 66 | 1010.0 |
| 20260504230028 | 78 | 149 | 4.0 | 11.0 | 0.00 | 0.00 | 0.00 | 65 | 1010.0 |
| 20260504225501 | 78 | 194 | 5.0 | 9.0 | 0.00 | 0.00 | 0.00 | 66 | 1009.9 |
| 20260504224002 | 79 | 267 | 4.0 | 11.0 | 0.00 | 0.00 | 0.00 | 66 | 1010.1 |
| 20260504223502 | 79 | 179 | 4.0 | 10.0 | 0.00 | 0.00 | 0.00 | 64 | 1010.1 |
| 20260504223028 | 79 | 166 | 4.0 | 10.0 | 0.00 | 0.00 | 0.00 | 64 | 1010.2 |
| 20260504222501 | 79 | 187 | 4.0 | 9.0 | 0.00 | 0.00 | 0.00 | 64 | 1010.1 |
| 20260504222003 | 79 | 135 | 4.0 | 10.0 | 0.00 | 0.00 | 0.00 | 63 | 1010.1 |
| 20260504221517 | 79 | 202 | 4.0 | 11.0 | 0.00 | 0.00 | 0.00 | 62 | 1010.4 |
| 20260504221002 | 79 | 218 | 4.0 | 11.0 | 0.00 | 0.00 | 0.00 | 61 | 1010.4 |
| 20260504220502 | 79 | 158 | 4.0 | 9.0 | 0.00 | 0.00 | 0.00 | 62 | 1010.4 |
| 20260504220027 | 79 | 176 | 4.0 | 14.0 | 0.00 | 0.00 | 0.00 | 61 | 1010.3 |
| 20260504215502 | 79 | 176 | 4.0 | 11.0 | 0.00 | 0.00 | 0.00 | 60 | 1010.5 |
| 20260504215003 | 80 | 212 | 4.0 | 14.0 | 0.00 | 0.00 | 0.00 | 60 | 1010.5 |
| 20260504214517 | 80 | 148 | 4.0 | 14.0 | 0.00 | 0.00 | 0.00 | 59 | 1010.6 |
| 20260504213501 | 80 | 187 | 4.0 | 11.0 | 0.00 | 0.00 | 0.00 | 59 | 1010.7 |
| 20260504213026 | 80 | 183 | 3.0 | 11.0 | 0.00 | 0.00 | 0.00 | 60 | 1010.7 |
| 20260504212502 | 80 | 158 | 3.0 | 11.0 | 0.00 | 0.00 | 0.00 | 59 | 1010.7 |
| 20260504211516 | 81 | 195 | 4.0 | 9.0 | 0.00 | 0.00 | 0.00 | 58 | 1011.0 |
| 20260504211003 | 81 | 195 | 3.0 | 10.0 | 0.00 | 0.00 | 0.00 | 57 | 1010.9 |
| 20260504210503 | 81 | 185 | 3.0 | 8.0 | 0.00 | 0.00 | 0.00 | 59 | 1011.0 |
| 20260504210033 | 81 | 161 | 3.0 | 11.0 | 0.00 | 0.00 | 0.00 | 57 | 1010.9 |
| 20260504205501 | 81 | 196 | 4.0 | 11.0 | 0.00 | 0.00 | 0.00 | 57 | 1011.0 |
| 20260504205002 | 82 | 204 | 4.0 | 9.0 | 0.00 | 0.00 | 0.00 | 56 | 1011.2 |
| 20260504204516 | 82 | 152 | 4.0 | 9.0 | 0.00 | 0.00 | 0.00 | 56 | 1011.3 |
| 20260504204001 | 82 | 161 | 4.0 | 10.0 | 0.00 | 0.00 | 0.00 | 57 | 1011.3 |
| 20260504203024 | 81 | 179 | 4.0 | 10.0 | 0.00 | 0.00 | 0.00 | 56 | 1011.4 |
| 20260504202501 | 81 | 207 | 4.0 | 10.0 | 0.00 | 0.00 | 0.00 | 57 | 1011.5 |
| 20260504202000 | 81 | 104 | 4.0 | 10.0 | 0.00 | 0.00 | 0.00 | 58 | 1011.7 |
| 20260504201515 | 82 | 183 | 3.0 | 10.0 | 0.00 | 0.00 | 0.00 | 56 | 1011.8 |
| 20260504200500 | 81 | 156 | 3.0 | 12.0 | 0.00 | 0.00 | 0.00 | 57 | 1011.9 |
| 20260504200026 | 80 | 202 | 3.0 | 12.0 | 0.00 | 0.00 | 0.00 | 57 | 1012.1 |
| 20260504195502 | 80 | 162 | 3.0 | 11.0 | 0.00 | 0.00 | 0.00 | 57 | 1012.1 |
| 20260504195002 | 80 | 156 | 4.0 | 8.0 | 0.00 | 0.00 | 0.00 | 58 | 1012.2 |
| 20260504194517 | 80 | 134 | 4.0 | 7.0 | 0.00 | 0.00 | 0.00 | 56 | 1012.2 |
| 20260504194004 | 81 | 160 | 3.0 | 10.0 | 0.00 | 0.00 | 0.00 | 56 | 1012.1 |
| 20260504193503 | 82 | 108 | 3.0 | 10.0 | 0.00 | 0.00 | 0.00 | 59 | 1012.3 |
| 20260504193027 | 82 | 186 | 3.0 | 9.0 | 0.00 | 0.00 | 0.00 | 55 | 1012.4 |
| 20260504192501 | 82 | 270 | 3.0 | 8.0 | 0.00 | 0.00 | 0.00 | 56 | 1012.3 |
| 20260504192004 | 82 | 244 | 3.0 | 10.0 | 0.00 | 0.00 | 0.00 | 55 | 1012.4 |
| 20260504191516 | 81 | 122 | 3.0 | 10.0 | 0.00 | 0.00 | 0.00 | 60 | 1012.5 |
| 20260504191002 | 80 | 260 | 4.0 | 11.0 | 0.00 | 0.00 | 0.00 | 56 | 1012.5 |
| 20260504190026 | 80 | 208 | 5.0 | 14.0 | 0.00 | 0.00 | 0.00 | 57 | 1012.7 |
| 20260504185500 | 80 | 274 | 4.0 | 9.0 | 0.00 | 0.00 | 0.00 | 57 | 1012.9 |
| 20260504185002 | 80 | 206 | 4.0 | 10.0 | 0.00 | 0.00 | 0.00 | 55 | 1013.0 |
| 20260504184515 | 80 | 156 | 4.0 | 11.0 | 0.00 | 0.00 | 0.00 | 56 | 1012.9 |
| 20260504184001 | 80 | 162 | 4.0 | 10.0 | 0.00 | 0.00 | 0.00 | 56 | 1013.0 |
| 20260504183500 | 80 | 173 | 4.0 | 11.0 | 0.00 | 0.00 | 0.00 | 56 | 1013.0 |
| 20260504181516 | 80 | 140 | 4.0 | 13.0 | 0.00 | 0.00 | 0.00 | 59 | 1013.1 |
| 20260504181001 | 80 | 177 | 4.0 | 13.0 | 0.00 | 0.00 | 0.00 | 59 | 1013.2 |
| 20260504180501 | 80 | 130 | 4.0 | 10.0 | 0.00 | 0.00 | 0.00 | 59 | 1013.4 |
| 20260504180026 | 79 | 179 | 4.0 | 11.0 | 0.00 | 0.00 | 0.00 | 60 | 1013.4 |
| 20260504175000 | 79 | 142 | 4.0 | 11.0 | 0.00 | 0.00 | 0.00 | 57 | 1013.6 |
| 20260504174515 | 80 | 179 | 4.0 | 11.0 | 0.00 | 0.00 | 0.00 | 57 | 1013.6 |
| 20260504174001 | 79 | 85 | 4.0 | 9.0 | 0.00 | 0.00 | 0.00 | 59 | 1013.7 |
| 20260504173500 | 78 | 217 | 5.0 | 12.0 | 0.00 | 0.00 | 0.00 | 59 | 1013.8 |
| 20260504173027 | 79 | 170 | 5.0 | 11.0 | 0.00 | 0.00 | 0.00 | 57 | 1013.8 |
| 20260504172000 | 78 | 158 | 4.0 | 11.0 | 0.00 | 0.00 | 0.00 | 59 | 1013.9 |
| 20260504171515 | 78 | 166 | 4.0 | 11.0 | 0.00 | 0.00 | 0.00 | 58 | 1014.2 |
| 20260504171001 | 78 | 141 | 4.0 | 11.0 | 0.00 | 0.00 | 0.00 | 59 | 1014.3 |
| 20260504141002 | 70 | 163 | 3.0 | 9.0 | 0.00 | 0.00 | 0.00 | 65 | 1015.0 |
| 20260504140500 | 70 | 220 | 3.0 | 9.0 | 0.00 | 0.00 | 0.00 | 65 | 1015.2 |
| 20260504130459 | 64 | 108 | 2.0 | 4.0 | 0.00 | 0.00 | 0.00 | 73 | 1015.1 |
| 20260504110459 | 57 | 131 | 0.0 | 1.0 | 0.00 | 0.00 | 0.00 | 81 | 1014.5 |
| 20260504100500 | 58 | 145 | 0.0 | 1.0 | 0.00 | 0.00 | 0.00 | 81 | 1014.9 |
| 20260504081959 | 61 | 186 | 0.0 | 1.0 | 0.00 | 0.00 | 0.00 | 75 | 1015.4 |
| 20260504080959 | 60 | 186 | 0.0 | 2.0 | 0.00 | 0.00 | 0.00 | 77 | 1015.6 |
| 20260504080458 | 60 | 166 | 0.0 | 1.0 | 0.00 | 0.00 | 0.00 | 77 | 1015.6 |
| 20260504050503 | 63 | 191 | 0.0 | 1.0 | 0.00 | 0.00 | 0.00 | 68 | 1017.5 |
| 20260504045502 | 64 | 193 | 0.0 | 2.0 | 0.00 | 0.00 | 0.00 | 67 | 1017.6 |
| 20260504045004 | 64 | 186 | 1.0 | 3.0 | 0.00 | 0.00 | 0.00 | 67 | 1017.5 |
| 20260504044003 | 65 | 171 | 1.0 | 3.0 | 0.00 | 0.00 | 0.00 | 66 | 1017.6 |
| 20260504043503 | 65 | 183 | 0.0 | 2.0 | 0.00 | 0.00 | 0.00 | 65 | 1017.7 |
| 20260504043026 | 65 | 179 | 0.0 | 2.0 | 0.00 | 0.00 | 0.00 | 65 | 1017.5 |
| 20260504042502 | 65 | 179 | 0.0 | 2.0 | 0.00 | 0.00 | 0.00 | 64 | 1017.6 |
| 20260504042002 | 65 | 187 | 1.0 | 2.0 | 0.00 | 0.00 | 0.00 | 64 | 1017.6 |
| 20260504041517 | 65 | 134 | 1.0 | 3.0 | 0.00 | 0.00 | 0.00 | 65 | 1017.5 |
| 20260504041003 | 65 | 191 | 1.0 | 3.0 | 0.00 | 0.00 | 0.00 | 63 | 1017.7 |
| 20260504040502 | 66 | 142 | 1.0 | 2.0 | 0.00 | 0.00 | 0.00 | 63 | 1017.7 |
| 20260504040026 | 66 | 175 | 1.0 | 3.0 | 0.00 | 0.00 | 0.00 | 62 | 1017.6 |
| 20260504035503 | 66 | 184 | 1.0 | 3.0 | 0.00 | 0.00 | 0.00 | 62 | 1017.6 |
| 20260504034517 | 67 | 159 | 1.0 | 7.0 | 0.00 | 0.00 | 0.00 | 60 | 1017.7 |
| 20260504034004 | 67 | 186 | 1.0 | 7.0 | 0.00 | 0.00 | 0.00 | 59 | 1017.6 |
| 20260504033025 | 67 | 199 | 2.0 | 4.0 | 0.00 | 0.00 | 0.00 | 59 | 1017.7 |
| 20260504032004 | 67 | 179 | 1.0 | 3.0 | 0.00 | 0.00 | 0.00 | 58 | 1017.7 |
| 20260504031517 | 68 | 157 | 1.0 | 5.0 | 0.00 | 0.00 | 0.00 | 58 | 1017.6 |
| 20260504031002 | 68 | 187 | 1.0 | 5.0 | 0.00 | 0.00 | 0.00 | 57 | 1017.6 |
| 20260504030502 | 68 | 182 | 2.0 | 4.0 | 0.00 | 0.00 | 0.00 | 57 | 1017.6 |
| 20260504030028 | 68 | 203 | 2.0 | 5.0 | 0.00 | 0.00 | 0.00 | 57 | 1017.5 |
| 20260504025502 | 68 | 156 | 2.0 | 4.0 | 0.00 | 0.00 | 0.00 | 56 | 1017.5 |
| 20260504025003 | 68 | 158 | 1.0 | 3.0 | 0.00 | 0.00 | 0.00 | 56 | 1017.2 |
| 20260504024003 | 69 | 145 | 2.0 | 7.0 | 0.00 | 0.00 | 0.00 | 56 | 1017.2 |
| 20260504023502 | 69 | 139 | 2.0 | 7.0 | 0.00 | 0.00 | 0.00 | 54 | 1017.1 |
| 20260504023025 | 69 | 155 | 2.0 | 7.0 | 0.00 | 0.00 | 0.00 | 55 | 1017.2 |
| 20260504022502 | 70 | 146 | 2.0 | 7.0 | 0.00 | 0.00 | 0.00 | 53 | 1017.2 |
| 20260504022004 | 70 | 171 | 2.0 | 7.0 | 0.00 | 0.00 | 0.00 | 53 | 1017.3 |
| 20260504021516 | 70 | 156 | 2.0 | 7.0 | 0.00 | 0.00 | 0.00 | 52 | 1017.3 |
| 20260504021002 | 70 | 170 | 3.0 | 7.0 | 0.00 | 0.00 | 0.00 | 52 | 1017.2 |
| 20260504020501 | 70 | 159 | 3.0 | 7.0 | 0.00 | 0.00 | 0.00 | 52 | 1017.1 |
| 20260504020030 | 71 | 189 | 2.0 | 7.0 | 0.00 | 0.00 | 0.00 | 52 | 1017.0 |
| 20260504015503 | 71 | 182 | 2.0 | 8.0 | 0.00 | 0.00 | 0.00 | 51 | 1017.0 |
| 20260504015003 | 71 | 180 | 2.0 | 8.0 | 0.00 | 0.00 | 0.00 | 51 | 1017.0 |
| 20260504014517 | 71 | 185 | 3.0 | 6.0 | 0.00 | 0.00 | 0.00 | 50 | 1017.0 |
| 20260504014003 | 71 | 166 | 2.0 | 7.0 | 0.00 | 0.00 | 0.00 | 50 | 1016.9 |
| 20260504013503 | 72 | 168 | 3.0 | 7.0 | 0.00 | 0.00 | 0.00 | 50 | 1016.8 |
| 20260504013029 | 72 | 167 | 2.0 | 7.0 | 0.00 | 0.00 | 0.00 | 51 | 1016.8 |
| 20260504012502 | 72 | 168 | 2.0 | 5.0 | 0.00 | 0.00 | 0.00 | 50 | 1016.9 |
| 20260504012004 | 72 | 171 | 3.0 | 7.0 | 0.00 | 0.00 | 0.00 | 49 | 1016.7 |
| 20260504011517 | 72 | 162 | 2.0 | 5.0 | 0.00 | 0.00 | 0.00 | 49 | 1016.6 |
| 20260504010502 | 73 | 179 | 2.0 | 8.0 | 0.00 | 0.00 | 0.00 | 48 | 1016.7 |
| 20260504010025 | 73 | 204 | 2.0 | 4.0 | 0.00 | 0.00 | 0.00 | 48 | 1016.7 |
| 20260504005002 | 73 | 135 | 2.0 | 9.0 | 0.00 | 0.00 | 0.00 | 48 | 1016.6 |
| 20260504004516 | 74 | 166 | 3.0 | 9.0 | 0.00 | 0.00 | 0.00 | 46 | 1016.6 |
| 20260504003025 | 74 | 155 | 2.0 | 7.0 | 0.00 | 0.00 | 0.00 | 46 | 1016.7 |
| 20260504002501 | 75 | 160 | 2.0 | 10.0 | 0.00 | 0.00 | 0.00 | 46 | 1016.7 |
| 20260504002002 | 75 | 214 | 3.0 | 10.0 | 0.00 | 0.00 | 0.00 | 45 | 1016.6 |